Regional Weather Roundup
Issued by NWS

Home | Current Version | Previous Version | Graphics & Text | Print | Product List | Glossary On
Versions: 1 2 3 4 5 6 7 8 9 10 11 12 13 14 15 16 17 18 19 20 21 22 23 24 25 26 27 28 29 30 31 32 33 34 35 36 37 38 39 40 41 42 43 44 45 46 47 48 49 50
000
ASUS43 KMKX 310221
RWRWI

WISCONSIN REGIONAL WEATHER ROUNDUP
NATIONAL WEATHER SERVICE MILWAUKEE/SULLIVAN WI
900 PM CDT MON MAY 30 2016

NOTE: "FAIR" INDICATES FEW OR NO CLOUDS BELOW 12,000 FEET WITH NO
SIGNIFICANT WEATHER AND/OR OBSTRUCTIONS TO VISIBILITY.

WIZ001-002-006>008-014>016-023>028-310300-
NORTHWEST WISCONSIN

CITY           SKY/WX    TMP DP  RH WIND       PRES   REMARKS
SUPERIOR ARPT  CLOUDY    62  48  59 NE9       29.94R
ASHLAND        CLOUDY    64  48  56 NE5       29.96R
HAYWARD        CLEAR     65  59  81 CALM      29.94S
SIREN          PTCLDY    69  56  64 CALM      29.93R
CUMBERLAND     PTCLDY    70  50  49 SE3       29.94S
RICE LAKE        N/A     72  54  54 CALM      29.95R
CHETEK         PTCLDY    71  56  58 SE3       29.94S
LADYSMITH      MOCLDY    69  58  68 CALM      29.97S
EAU CLAIRE     MOCLDY    72  54  53 SE6       29.93S
MENOMONIE      PTCLDY    72  54  53 SE5       29.93S
NEW RICHMOND   PTCLDY    71  53  53 SE6       29.93R
OSCEOLA        CLOUDY    71  57  61 SE7       29.94R
$$

WIZ003>005-009-010-017-018-310300-
NORTH CENTRAL WISCONSIN

CITY           SKY/WX    TMP DP  RH WIND       PRES   REMARKS
MANITOWISH WTR NOT AVBL
ARBOR VITAE    PTCLDY    63  55  76 CALM      29.99R
WOODRUFF       PTCLDY    63  55  76 CALM      29.99R
RHINELANDER    PTCLDY    62  54  74 CALM      29.99S
EAGLE RIVER      N/A     60  52  74 CALM      29.99R
LAND O LAKES   CLEAR     65  47  53 NE5       30.01R
PHILLIPS       CLOUDY    66  57  73 CALM      29.97S
TOMAHAWK       CLOUDY    65  55  69 CALM      29.98S
MEDFORD        CLEAR     63  59  87 CALM      29.98S
MERRILL        MOCLDY    66  57  71 CALM      29.99R
$$

WIZ029-030-035-036-043>047-310300-
CENTRAL WISCONSIN

CITY           SKY/WX    TMP DP  RH WIND       PRES   REMARKS
WAUSAU         CLEAR     71  51  49 CALM      29.96S
MOSINEE        CLEAR     68  48  49 CALM      29.99S
MARSHFIELD     CLEAR     71  53  52 E3        29.97R
STEVENS POINT  CLEAR     65  54  67 CALM      29.99R
WAUPACA        CLEAR     69  57  65 CALM      29.98R
WAUTOMA        CLEAR    N/A N/A N/A CALM      29.98R
WISC RAPIDS    CLEAR     65  53  65 SE3       29.99R
CAMP DOUGLAS   PTCLDY    65  65 100 E3        29.96S
$$

WIZ011>013-019>022-031-037>040-048>050-310300-
NORTHEAST WISCONSIN

CITY           SKY/WX    TMP DP  RH WIND       PRES   REMARKS
ANTIGO         MOCLDY    64  58  80 CALM      30.00R
SHAWANO        CLEAR     68  55  62 CALM      29.97R
OCONTO         CLEAR     63  62  98 CALM      29.96R
STURGEON BAY   NOT AVBL
GREEN BAY      CLEAR     70  61  73 SW3       29.97S
MANITOWOC      CLEAR     60  55  83 CALM      29.99S
APPLETON       PTCLDY    70  50  49 CALM      29.97R
CLINTONVILLE   CLEAR     68  54  60 CALM      29.98R
OSHKOSH        CLEAR     69  54  58 CALM      29.98S
$$

WIZ032>034-041-042-053>061-310300-
SOUTHWEST WISCONSIN

CITY           SKY/WX    TMP DP  RH WIND       PRES   REMARKS
LA CROSSE      CLOUDY    74  56  53 E5        29.93S
SPARTA         CLOUDY    68  57  69 CALM      29.96S
VIROQUA        CLOUDY    72  49  45 SE7       29.97S
BOSCOBEL       CLOUDY    69  62  78 CALM      29.96R
PRAIRIE DU CHI CLOUDY    72  55  56 E5        29.93F
PLATTEVILLE    PTCLDY    72  54  53 E6        29.97S
$$

WIZ056-057-062-063-064-067-068-310300-
SOUTH CENTRAL WISCONSIN

CITY           SKY/WX    TMP DP  RH WIND       PRES   REMARKS
REEDSBURG      CLEAR     67  56  68 CALM      29.97R
BARABOO/DELLS  CLEAR     69  51  54 CALM      29.98R
LONE ROCK      CLOUDY    71  55  56 CALM      29.97R
MINERAL POINT  CLOUDY    73  46  38 E6        29.98S
MADISON        CLOUDY    67  52  58 CALM      29.97S
MIDDLETON      CLOUDY    67  57  72 CALM      29.99R
WATERTOWN      CLEAR     66  57  71 CALM      29.98S
MONROE         CLEAR     73  46  38 NE5       29.98R
JANESVILLE     PTCLDY    75  50  41 NE7       29.96S
$$

WIZ051-052-058>065-066-070>072-310300-
SOUTHEAST WISCONSIN

CITY           SKY/WX    TMP DP  RH WIND       PRES   REMARKS
MILWAUKEE      PTCLDY    64  56  75 E3        29.99S
WAUKESHA       CLEAR     66  55  68 E9        30.00S
MILWAUKEE/TIMM CLEAR     70  52  52 SE5       30.00S
RACINE         CLEAR     64  56  75 E3        30.01R
BURLINGTON     CLEAR     68  55  62 CALM      29.99S
KENOSHA        CLEAR     63  56  78 E5        29.99S
FOND DU LAC    CLEAR     68  56  65 CALM      29.98R
SHEBOYGAN      CLEAR     64  55  72 S6        30.00R
WEST BEND      CLEAR     64  55  72 CALM      30.00S
JUNEAU         CLEAR     72  53  52 CALM      30.00R
$$

LSZ147-162-310300-
LAKE SUPERIOR

STATION/POSITION TIME  TEMP    WIND        PRES    WAVE
                       AIR SEA DIR/SP/G            HT/PER
                 (UTC) (F)     (DEG/KT/KT) (MB)    (FT/S)
W MID LAKE BUOY  0150   47 38   60/ 17/ 21 1015.4R   0
DEVILS ISLAND    0200   67     120/ 11/ 12 1014.4R
SAXON HARBOR     0100   65      CALM  /  2 1013.5
$$

LMZ867-665-643>646-310300-
LAKE MICHIGAN

STATION/POSITION TIME  TEMP    WIND        PRES    WAVE
                       AIR SEA DIR/SP/G            HT/PER
                 (UTC) (F)     (DEG/KT/KT) (MB)    (FT/S)
CHAMBERS ISLAND  0140   66     170/  4/  6 1014.6R
N MID LAKE BUOY  0150   54 50  220/  6/ 10 1014.6R   1/ 3
NORTHPORT PIER   0100   67     170/  4/  8 1014.2R
KEWAUNEE LAKESHO 0100                      1014.5
SHEBOYGAN LAKESH 0200   65     180/  8/  9 1015.9R
PORT WASHINGTON  0140   62     190/  4/  5 1016.3R
S MID LAKE BUOY  0150   61 58   80/  6/  6 1015.3R   0
KENOSHA   LAKESH 0200   61      10/  3/  4 1015.2R
$$

TC  - TEMPERATURE IN CELSIUS
VSB - VISIBILITY IN STATUTE MILES
WCI - WIND CHILL INDEX
HX  - HEAT INDEX





USA.gov is the U.S. government's official web portal to all federal, state and local government web resources and services.